CW8593 Weather Reports


Display with metric or nautical units.
time (UTC)temp
F
wind
direction
speed
MPH
gust
MPH
rain 1hr
in
rain 24hr
in
rain mn
in
humidity
%
barometer
mb
20140801094050 81 164 3.0 12.0 0.00 0.00 0.00 72 1010.9
20140801093049 80 158 6.0 14.0 0.00 0.00 0.00 71 1010.9
20140801091049 80 156 5.0 12.0 0.00 0.00 0.00 72 1010.9
20140801083050 80 68 1.0 8.0 0.00 0.00 0.00 72 1010.7
20140801081050 79 82 5.0 8.0 0.00 0.00 0.00 74 1010.7
20140801080050 79 77 2.0 3.0 0.00 0.00 0.00 76 1010.7
20140801071049 77 303 0.0 3.0 0.00 0.00 0.00 81 1011.1
20140801070050 77 323 0.0 2.0 0.00 0.00 0.00 80 1010.9
20140801063049 74 322 0.0 1.0 0.00 0.00 0.00 82 1010.6
20140801060049 74 323 0.0 1.0 0.00 0.00 0.00 83 1010.5
20140801053049 73 323 0.0 2.0 0.00 0.00 0.00 83 1010.7
20140801051049 73 323 0.0 0.0 0.00 0.00 0.00 82 1010.6
20140801050049 73 322 0.0 3.0 0.00 0.00 0.00 81 1010.6
20140801041049 73 323 0.0 0.0 0.00 0.00 0.00 81 1010.7
20140801034050 73 322 0.0 2.0 0.00 0.00 0.00 81 1010.9
20140801030050 72 323 1.0 3.0 0.00 0.00 0.00 82 1011.0
20140801024048 72 323 1.0 2.0 0.00 0.00 0.00 83 1011.3
20140801023049 71 322 0.0 1.0 0.00 0.00 0.00 83 1011.2
20140801021049 72 323 0.0 2.0 0.00 0.00 0.00 82 1011.3
20140801014048 71 322 0.0 0.0 0.00 0.00 0.00 82 1011.6
20140801013049 71 323 0.0 3.0 0.00 0.00 0.00 82 1011.6
20140801011049 71 323 1.0 3.0 0.00 0.00 0.00 82 1011.9
20140801010050 71 322 2.0 3.0 0.00 0.00 0.00 82 1012.0
20140801001048 72 323 0.0 2.0 0.00 0.00 0.00 79 1012.5
20140731234050 72 322 1.0 3.0 0.00 0.00 0.00 78 1012.4
20140731233049 72 323 0.0 2.0 0.00 0.00 0.00 75 1012.3
20140731231049 72 323 0.0 0.0 0.00 0.00 0.00 73 1012.4
20140731220113 74 323 1.0 3.0 0.00 0.00 0.00 70 1012.2
20140731213048 75 327 0.0 5.0 0.00 0.00 0.00 68 1012.1
20140731210048 75 15 0.0 2.0 0.00 0.00 0.00 70 1011.9
20140731204049 76 15 1.0 3.0 0.00 0.00 0.00 68 1011.8
20140731203050 76 15 0.0 3.0 0.00 0.00 0.00 66 1011.6
20140731200050 78 101 1.0 3.0 0.00 0.00 0.00 68 1011.2
20140731191048 79 159 1.0 5.0 0.00 0.00 0.00 64 1010.5
20140731184050 79 231 2.0 9.0 0.00 0.00 0.00 66 1010.4
20140731183048 80 234 2.0 10.0 0.00 0.00 0.00 66 1010.5
20140731181049 80 187 5.0 10.0 0.00 0.00 0.00 67 1010.4
20140731174049 80 243 5.0 13.0 0.00 0.00 0.00 66 1010.5
20140731170048 81 163 7.0 15.0 0.00 0.00 0.00 68 1010.5
20140731164052 81 223 10.0 17.0 0.00 0.00 0.00 66 1010.6
20140731163050 81 177 6.0 15.0 0.00 0.00 0.00 66 1010.6
20140731151050 81 200 10.0 20.0 0.00 0.00 0.00 49 1011.2
20140731144049 81 188 12.0 21.0 0.00 0.00 0.00 51 1011.2
20140731141048 81 180 9.0 18.0 0.00 0.00 0.00 57 1011.5
20140731131048 82 177 6.0 14.0 0.00 0.00 0.00 55 1011.9
20140731130048 81 198 6.0 20.0 0.00 0.00 0.00 57 1012.0
20140731124050 80 190 9.0 20.0 0.00 0.00 0.00 58 1012.1
20140731123053 80 164 12.0 21.0 0.00 0.00 0.00 56 1012.0
20140731120047 80 183 12.0 18.0 0.00 0.00 0.00 64 1012.3
20140731114049 79 142 6.0 14.0 0.00 0.00 0.00 73 1012.4
20140731104048 79 136 5.0 12.0 0.00 0.00 0.00 73 1012.7